Theta_e
349 355 358 358 356 356 356 357 359 359 360 360 358 358 359 360 361 361 359 360 361 361 358 358 357 355 353 354 355 355 356 355 353 353 353 351 351 352 352 353 353 353 355
352 355 358 359 357 356 357 357 359 360 360 360 360 360 361 362 361 361 360 360 361 359 358 358 358 358 357 354 354 354 354 355 355 353 353 350 350 351 351 351 352 351 355
352 355 354 359 359 357 359 360 360 360 361 361 361 361 360 360 359 359 360 359 359 356 356 357 357 357 357 357 355 354 353 354 353 354 349 343 345 349 350 351 351 351 352
353 353 352 359 355 358 359 360 359 360 360 360 359 358 358 359 359 357 359 359 357 355 354 354 354 354 355 356 356 356 355 353 352 350 347 345 344 349 349 349 349 349 350
353 354 353 359 359 359 359 359 359 360 359 358 357 358 357 357 358 359 358 358 356 353 352 351 351 350 351 351 353 355 356 357 353 350 348 347 347 348 348 349 348 348 348
351 352 356 359 359 358 359 359 360 359 359 358 358 357 357 356 356 357 357 357 355 352 351 351 351 351 351 350 350 351 352 356 357 355 353 349 349 350 348 348 347 347 347
349 351 353 358 359 359 359 358 359 359 359 359 357 356 355 355 355 355 354 352 352 351 352 352 352 353 353 353 353 353 353 353 353 353 355 353 351 354 350 349 348 348 347
348 350 352 357 359 359 358 359 359 359 359 358 357 356 355 353 353 352 351 350 351 352 352 353 354 354 355 356 356 356 355 356 356 355 354 354 352 355 353 350 349 348 347
350 349 351 352 356 359 359 359 359 359 359 358 358 357 355 353 352 351 350 349 351 352 352 354 354 355 355 356 356 356 355 345 353 355 352 354 354 355 354 353 350 350 348
348 349 348 348 351 353 355 358 359 359 358 358 356 356 355 352 350 350 350 350 352 352 352 353 353 353 354 355 355 356 357 349 354 354 353 354 356 356 356 354 351 351 350
344 346 346 347 348 350 350 354 358 357 356 356 355 354 352 347 346 347 349 349 352 353 352 352 351 355 350 355 355 356 357 355 354 355 355 354 357 356 357 356 353 352 352
340 343 344 346 348 350 350 352 353 351 352 351 351 352 349 348 347 346 349 349 352 353 351 351 352 349 351 350 353 356 355 353 350 355 356 357 358 357 358 356 354 352 352
338 342 343 346 351 350 349 350 351 350 351 352 353 353 351 346 347 347 349 351 355 349 351 348 347 349 349 350 351 353 354 352 354 355 355 358 359 358 358 357 356 355 354
337 340 343 346 349 351 349 350 350 349 350 349 350 353 350 346 346 346 347 349 355 353 349 347 344 344 346 350 352 354 355 356 358 357 357 358 358 357 357 357 356 357 356
336 339 341 344 347 349 351 350 350 349 349 349 350 351 347 345 344 349 349 349 350 348 346 344 341 339 342 347 352 354 354 355 356 356 357 355 356 356 354 353 352 352 354
336 338 341 342 348 346 348 350 350 350 350 351 349 349 348 346 348 350 348 348 346 344 343 342 340 337 337 347 350 353 353 354 355 355 354 353 353 353 354 354 355 354 353
338 339 341 342 345 345 345 349 349 350 349 349 348 349 348 348 351 349 346 344 342 340 340 338 335 335 333 344 349 350 351 351 352 352 350 351 352 352 352 350 350 350 351
340 339 342 341 343 345 346 348 348 349 349 348 347 347 347 347 350 346 344 341 338 337 338 337 335 332 331 337 343 344 342 344 345 342 342 345 344 341 344 345 345 345 344
341 341 341 342 341 343 346 347 347 348 347 347 346 345 346 347 345 343 341 338 337 336 336 335 333 332 328 332 340 339 338 337 337 341 339 341 340 339 338 337 339 339 339
341 341 342 342 343 344 345 346 345 344 345 345 343 343 345 345 342 341 337 335 334 333 333 333 332 327 326 330 334 327 327 331 333 336 338 334 333 332 333 332 332 332 332
341 341 341 340 344 342 341 339 339 337 339 339 341 342 342 342 338 337 333 331 331 331 333 333 328 325 327 331 328 320 318 322 326 328 333 333 331 329 329 327 327 326 325
340 340 340 341 343 343 342 338 337 337 334 333 331 332 334 333 332 332 330 328 328 326 328 327 325 321 327 329 327 326 318 317 318 320 327 327 326 323 321 322 322 322 322
335 337 338 340 341 340 338 339 332 329 326 325 325 326 328 328 327 327 327 325 324 325 323 326 325 324 325 326 330 326 316 317 315 318 320 323 324 320 319 318 319 319 320
335 337 338 339 339 338 339 333 329 329 327 328 327 328 325 325 323 322 322 323 323 321 322 323 325 325 324 326 320 319 323 322 315 309 314 319 321 319 317 315 315 316 317
334 335 336 335 335 335 333 330 329 331 335 330 328 325 322 321 321 319 320 321 321 320 321 321 321 320 317 317 319 316 318 318 319 314 308 311 315 317 314 311 312 313 316
330 334 334 334 333 333 330 327 325 326 326 320 322 322 320 321 321 319 319 319 317 316 315 314 316 317 318 316 319 319 320 315 313 313 311 311 311 307 310 309 309 310 314
Wind_Speed
13 16 17 16 16 16 17 17 17 17 16 16 16 16 15 14 14 14 14 13 12 12 13 13 13 13 13 13 14 14 13 13 14 14 14 14 12 13 13 13 11 14 15
17 18 17 17 17 17 16 17 17 16 16 15 15 15 13 13 14 13 12 12 11 13 12 12 12 11 11 12 12 13 13 13 13 14 13 14 13 13 12 12 12 12 15
19 18 18 17 18 17 16 16 16 16 15 15 14 14 13 12 13 12 11 11 11 12 11 10 10 9 9 9 10 11 11 11 12 13 8 9 12 12 12 12 13 13 12
18 17 17 18 19 18 16 16 16 16 15 14 14 14 13 12 12 12 10 10 11 11 10 9 8 8 7 7 7 8 9 10 11 10 7 8 11 12 12 12 12 12 12
18 17 16 18 18 18 17 16 16 15 14 14 14 13 12 12 11 9 9 8 10 10 9 7 6 5 5 5 6 6 7 7 9 6 9 8 8 11 12 12 12 12 10
19 18 18 17 17 19 18 18 16 16 15 14 13 12 11 11 10 9 9 8 8 8 8 6 5 4 4 3 4 4 5 6 8 6 6 8 7 11 10 11 12 12 12
20 17 19 18 17 18 19 19 17 16 14 13 13 12 11 10 9 9 8 7 8 6 6 5 3 3 3 4 4 4 4 5 5 6 7 6 8 8 10 9 10 11 11
20 19 18 18 18 18 17 17 16 14 13 13 12 11 10 9 8 8 7 6 6 5 4 4 4 4 5 5 4 4 4 5 7 5 6 6 11 9 10 10 9 9 10
19 17 16 17 18 17 17 15 15 14 13 12 10 9 9 9 8 7 6 4 3 4 3 4 5 5 5 6 5 4 4 3 4 5 6 5 12 10 10 10 9 8 8
20 18 17 16 17 16 16 16 14 14 13 11 10 9 8 7 6 6 4 4 4 4 4 3 3 2 4 6 5 5 6 6 7 7 5 5 13 11 11 10 9 9 8
18 18 18 17 16 15 15 15 14 15 13 11 10 8 7 6 7 7 4 3 2 4 3 1 2 1 4 2 5 6 7 3 4 4 4 11 12 11 9 9 8 8 8
21 21 19 19 17 16 12 14 14 12 11 10 9 8 6 5 4 3 3 1 1 2 3 1 6 5 4 4 6 6 3 4 4 4 3 11 11 11 9 9 8 8 7
17 14 17 17 16 16 13 10 8 7 7 7 10 8 6 4 4 4 3 3 3 3 3 5 5 4 6 4 5 4 4 4 3 3 6 7 8 9 10 9 9 9 9
19 19 18 16 15 15 10 10 10 9 8 7 8 9 6 5 5 4 3 4 3 2 5 4 4 5 6 5 6 6 5 4 3 4 8 7 5 5 5 8 9 11 10
20 21 20 18 15 10 12 9 9 9 8 9 8 8 6 6 5 4 4 5 4 4 5 5 5 4 5 5 5 6 6 6 6 5 6 12 9 7 6 4 2 2 6
18 19 19 20 17 13 10 12 9 8 9 8 8 8 8 5 4 4 5 6 6 5 4 5 5 5 4 5 5 5 6 6 6 6 6 7 11 10 11 13 12 14 9
14 16 18 18 18 16 14 13 9 8 8 8 7 8 8 7 6 5 6 7 7 6 6 4 5 5 5 4 6 4 4 5 6 6 6 5 9 18 18 19 19 20 23
15 15 15 15 19 18 15 13 10 10 9 8 7 7 9 9 8 7 6 7 8 7 6 5 4 4 4 4 5 5 4 5 7 8 6 6 8 9 14 18 19 17 20
14 14 16 16 19 21 17 13 13 12 9 8 8 8 9 10 10 8 8 7 8 6 5 5 4 3 4 5 5 6 5 5 6 6 8 8 9 8 8 13 16 17 16
15 15 15 14 16 15 12 12 10 10 10 9 9 9 11 10 11 9 7 8 8 7 6 5 5 4 4 5 7 6 5 5 5 5 7 7 7 8 8 8 8 10 14
15 15 17 17 15 12 11 11 12 12 11 10 10 12 12 10 11 9 8 9 8 8 7 7 6 7 6 8 8 7 6 6 6 5 5 7 8 8 9 8 6 6 8
14 16 14 15 16 13 9 8 7 8 7 8 7 8 10 13 13 11 10 9 8 7 8 9 8 7 4 9 5 7 5 4 5 5 4 5 8 7 8 9 10 8 6
11 13 13 13 12 10 10 7 3 4 3 5 10 9 11 13 13 12 11 10 10 8 8 10 10 10 7 7 9 4 5 6 9 4 5 5 7 6 8 8 8 9 8
7 11 13 13 12 9 8 7 11 11 11 10 10 10 11 14 14 13 13 12 10 8 9 8 8 8 7 9 6 4 1 7 6 7 5 5 6 7 7 6 7 7 6
1 3 5 7 10 11 12 13 10 14 7 2 6 11 10 10 12 13 12 12 11 8 8 9 9 8 7 5 6 5 5 5 5 6 10 8 7 5 6 6 5 5 6
4 3 2 5 2 6 10 12 12 14 10 9 9 9 8 7 8 11 12 10 9 8 8 7 7 9 7 5 8 8 7 6 9 7 10 12 10 4 5 4 5 5 4
Wind_Direction
161 156 156 157 154 145 138 134 130 127 125 126 126 123 125 129 125 119 116 110 109 109 107 107 104 101 100 103 105 103 102 100 99 100 101 96 98 101 92 93 95 93 92
155 157 157 156 153 148 139 137 133 130 129 129 129 129 127 123 119 117 114 112 111 110 111 110 108 108 106 106 106 107 106 102 97 103 107 102 99 99 104 99 98 88 93
157 156 160 159 153 149 143 140 136 133 131 133 130 128 131 127 121 116 113 111 110 108 108 107 107 105 104 105 107 107 106 105 99 104 104 92 96 100 103 101 102 99 96
154 159 161 162 157 153 151 146 140 135 135 134 135 137 137 127 123 120 116 113 111 108 105 103 106 111 120 125 127 126 119 113 108 119 107 98 99 100 101 102 102 102 100
159 161 161 164 158 156 155 148 143 139 139 142 143 142 138 129 123 118 110 107 108 106 103 104 110 117 126 138 137 141 142 135 121 135 102 111 108 109 111 113 115 111 96
159 163 160 164 163 158 160 153 153 150 149 147 147 143 139 132 123 111 105 101 103 105 107 111 119 134 142 158 152 155 154 165 185 113 106 106 108 116 119 115 112 112 112
161 165 164 165 167 164 164 160 159 154 150 150 148 148 143 135 123 115 114 116 112 112 118 127 148 180 185 194 189 183 176 176 215 151 133 129 116 136 126 121 121 123 122
162 165 163 169 168 168 170 166 162 159 155 154 153 152 148 137 129 125 130 128 122 128 143 158 184 203 215 223 210 201 200 211 195 155 157 148 130 152 142 132 135 135 131
166 167 169 172 172 171 170 174 167 164 162 159 159 155 152 147 142 139 137 127 110 127 158 172 191 201 214 223 215 199 181 169 162 163 162 161 154 162 150 152 149 150 146
167 169 170 175 177 177 174 177 175 169 168 165 164 166 160 155 145 140 141 121 104 117 136 162 179 216 247 247 220 190 173 166 133 143 169 148 162 172 165 158 162 163 161
167 174 173 173 177 184 180 179 182 180 179 175 175 177 173 177 165 160 90 139 111 117 135 173 194 136 104 114 179 182 191 165 150 153 166 144 167 173 175 171 169 176 179
175 179 177 176 176 183 182 182 190 186 191 188 186 186 197 177 166 145 125 204 112 93 84 132 98 101 166 99 111 145 192 167 156 148 143 160 170 174 173 176 181 188 195
179 182 186 177 178 184 186 185 186 191 190 190 190 191 187 181 175 170 157 174 169 146 144 149 133 98 98 94 91 90 94 128 125 159 120 155 172 179 182 188 193 197 204
189 183 184 181 183 193 192 191 190 193 193 193 194 188 187 193 184 184 184 169 200 166 139 146 116 100 104 103 104 100 96 102 101 115 103 129 163 205 208 197 211 210 208
195 185 182 181 182 187 203 200 199 202 199 199 198 194 191 199 196 189 167 176 171 172 163 142 125 104 98 106 114 119 111 106 106 105 98 73 65 63 61 60 23 286 228
200 190 184 181 184 181 196 208 200 209 203 204 204 202 192 207 212 194 163 162 156 171 171 156 138 128 115 124 116 114 120 120 114 120 120 92 60 55 66 69 75 75 68
202 199 188 188 186 193 192 201 208 216 208 209 214 204 202 200 197 190 174 169 161 155 160 150 128 122 115 121 109 116 110 107 104 98 90 103 95 77 79 82 76 78 78
204 202 198 193 191 194 202 196 204 209 209 212 210 210 205 200 189 178 177 168 160 156 168 168 149 121 115 121 126 116 120 114 98 90 88 96 90 79 73 81 82 77 85
203 196 202 204 203 198 201 205 206 210 214 206 212 208 204 200 184 180 176 164 166 161 171 168 143 136 130 128 121 106 103 106 114 111 96 85 91 96 94 80 80 79 81
197 191 201 204 214 211 201 202 213 210 212 208 211 206 197 194 185 182 170 159 169 166 165 173 162 131 149 149 115 94 77 85 104 106 109 103 95 95 94 94 96 85 83
197 191 193 192 201 200 203 201 207 211 209 211 208 202 188 189 181 177 174 166 173 174 168 165 145 144 139 144 126 91 70 68 81 89 109 114 108 100 100 94 86 85 85
203 197 197 201 187 190 193 209 222 220 210 200 194 187 183 179 176 177 172 173 173 155 160 163 166 162 162 175 172 143 156 138 87 61 103 116 112 111 102 91 94 86 81
192 188 192 189 187 186 173 205 194 156 166 187 192 183 185 180 175 174 173 169 163 167 169 179 178 180 166 177 201 175 166 188 148 126 107 129 132 118 109 103 92 90 83
220 154 149 160 166 184 198 188 210 214 216 221 201 190 181 183 173 169 166 164 164 165 165 173 177 175 173 181 186 209 346 133 181 160 144 118 124 126 111 102 95 86 80
240 244 166 168 158 175 179 192 203 216 226 235 215 180 183 176 174 167 168 165 161 163 162 170 173 179 185 203 197 173 165 161 157 160 160 149 125 120 119 107 91 90 83
6 18 235 214 137 166 189 194 197 210 197 174 190 202 184 187 181 168 167 161 152 152 160 166 173 179 190 219 209 193 184 173 170 162 157 163 142 124 118 98 98 87 72